Torna al catalogo

DELTA 1 DEB

AttivoSSO
NORAD 7071·DEBRIS·🇺🇸 United States

Lanciato Nov 6, 1973 da Vandenberg Space Force Base

Loading…

Prossimi Passaggi (prossime 24 ore)

TLE

AggiornatoSource: Space-Track

Epoca: Sep 14, 2026, 11:13 UTC

1 07071U 73086BP  26257.46786478 -.00000027  00000-0  11267-3 0  9991
2 07071 101.6366 235.9961 0005983 290.0558 222.2140 12.41174682394194

Traccia DELTA 1 DEB in tempo reale con AllMySat

Download on the App Store